Location: Olomouc
(49.5938°N, 17.2509°E)
Time: 20:13:45
(UTC+02:00)

ISS - Visible Passes

Search period start: 01 April 2020 00:00
Search period end: 11 April 2020 00:00
Orbit: 416 x 423 km, 51.6° (Epoch: 02 April)

Date Brightness Start Highest point End Pass type
(mag) Time Alt. Az. Time Alt. Az. Time Alt. Az.
01 Apr -3.0 21:00:35 10° WNW 21:03:47 42° SSW 21:04:47 32° SSE visible
02 Apr -3.4 20:13:07 10° WNW 20:16:26 60° SSW 20:19:21 13° SE visible
02 Apr -1.2 21:50:56 10° WSW 21:52:19 13° SW 21:52:19 13° SW visible
03 Apr -1.7 21:02:56 10° W 21:05:29 20° SW 21:06:56 16° S visible
04 Apr -2.2 20:15:14 10° W 20:18:12 29° SW 20:21:10 10° SSE visible
06 Apr -1.1 20:17:59 10° WSW 20:19:44 14° SW 20:21:29 10° SSW visible
